QPF
0.00 0.00 0.01 0.01 0.02 0.03 0.03 0.03 0.02 0.00 0.00 0.01 0.00 0.00 0.00 0.00 0.01 0.02 0.02 0.01 0.01 0.00 0.00 0.00 0.00 0.00 0.00 0.00 0.01 0.01 0.01 0.01 0.01 0.02 0.01 0.02 0.01 0.01 0.01 0.01 0.02 0.03 0.03 0.03 0.04 0.04 0.05 0.05 0.06
0.00 0.00 0.00 0.01 0.02 0.03 0.05 0.04 0.02 0.00 0.00 0.00 0.00 0.00 0.00 0.00 0.00 0.00 0.01 0.01 0.01 0.00 0.00 0.00 0.00 0.00 0.00 0.00 0.00 0.01 0.01 0.01 0.01 0.01 0.01 0.01 0.02 0.02 0.01 0.02 0.02 0.03 0.02 0.03 0.03 0.03 0.03 0.04 0.05
0.00 0.00 0.01 0.01 0.02 0.04 0.08 0.05 0.01 0.00 0.00 0.00 0.00 0.00 0.00 0.00 0.00 0.00 0.01 0.01 0.01 0.00 0.00 0.00 0.00 0.00 0.00 0.00 0.00 0.01 0.01 0.02 0.02 0.01 0.01 0.02 0.03 0.03 0.03 0.03 0.03 0.03 0.03 0.03 0.03 0.03 0.03 0.04 0.05
0.00 0.00 0.00 0.01 0.01 0.02 0.03 0.01 0.00 0.00 0.00 0.00 0.00 0.01 0.01 0.00 0.00 0.01 0.01 0.01 0.00 0.00 0.00 0.00 0.00 0.00 0.00 0.00 0.00 0.00 0.00 0.01 0.02 0.02 0.01 0.02 0.03 0.04 0.05 0.04 0.03 0.03 0.04 0.04 0.04 0.03 0.02 0.02 0.03
0.01 0.01 0.01 0.01 0.02 0.02 0.01 0.01 0.00 0.00 0.00 0.00 0.00 0.01 0.03 0.02 0.01 0.01 0.00 0.00 0.00 0.00 0.00 0.00 0.00 0.00 0.00 0.00 0.00 0.00 0.00 0.00 0.01 0.02 0.02 0.02 0.02 0.02 0.03 0.04 0.05 0.05 0.05 0.05 0.05 0.05 0.03 0.03 0.03
0.02 0.02 0.01 0.01 0.01 0.02 0.03 0.01 0.01 0.01 0.00 0.00 0.01 0.02 0.04 0.03 0.02 0.01 0.00 0.00 0.00 0.00 0.00 0.00 0.00 0.00 0.00 0.00 0.00 0.00 0.00 0.00 0.00 0.01 0.01 0.01 0.01 0.01 0.02 0.02 0.04 0.05 0.05 0.07 0.08 0.07 0.04 0.03 0.02
0.02 0.02 0.01 0.01 0.02 0.02 0.03 0.01 0.01 0.01 0.01 0.00 0.01 0.04 0.04 0.03 0.01 0.01 0.01 0.01 0.00 0.00 0.00 0.00 0.00 0.01 0.00 0.00 0.00 0.01 0.01 0.00 0.00 0.00 0.01 0.01 0.01 0.02 0.02 0.01 0.02 0.02 0.02 0.05 0.08 0.09 0.06 0.03 0.02
0.01 0.01 0.01 0.01 0.02 0.02 0.02 0.01 0.01 0.00 0.00 0.00 0.00 0.02 0.03 0.02 0.01 0.01 0.01 0.01 0.01 0.00 0.00 0.00 0.00 0.00 0.00 0.01 0.01 0.01 0.00 0.00 0.01 0.01 0.01 0.01 0.01 0.02 0.02 0.02 0.02 0.02 0.03 0.04 0.06 0.07 0.09 0.04 0.02
0.01 0.01 0.01 0.01 0.01 0.02 0.01 0.01 0.01 0.01 0.01 0.00 0.00 0.00 0.00 0.00 0.00 0.01 0.01 0.01 0.01 0.00 0.00 0.00 0.00 0.00 0.00 0.01 0.00 0.00 0.00 0.01 0.01 0.01 0.01 0.01 0.01 0.01 0.02 0.02 0.02 0.02 0.03 0.03 0.03 0.03 0.07 0.06 0.03
0.01 0.01 0.01 0.01 0.01 0.01 0.01 0.01 0.00 0.00 0.00 0.00 0.00 0.00 0.00 0.00 0.00 0.01 0.01 0.01 0.01 0.00 0.00 0.00 0.00 0.00 0.00 0.00 0.00 0.00 0.00 0.00 0.00 0.01 0.01 0.01 0.01 0.01 0.02 0.02 0.02 0.04 0.04 0.04 0.03 0.02 0.04 0.05 0.03
0.00 0.01 0.01 0.01 0.00 0.00 0.01 0.01 0.00 0.00 0.00 0.00 0.00 0.01 0.00 0.00 0.01 0.01 0.01 0.01 0.01 0.01 0.01 0.00 0.00 0.00 0.00 0.00 0.00 0.00 0.00 0.00 0.00 0.01 0.01 0.01 0.02 0.01 0.02 0.01 0.02 0.04 0.04 0.03 0.03 0.03 0.02 0.02 0.03
0.00 0.00 0.00 0.01 0.00 0.00 0.01 0.00 0.00 0.00 0.00 0.00 0.00 0.01 0.00 0.00 0.00 0.01 0.01 0.02 0.01 0.01 0.01 0.00 0.00 0.00 0.00 0.01 0.00 0.00 0.00 0.00 0.01 0.01 0.01 0.01 0.02 0.02 0.02 0.02 0.02 0.03 0.03 0.03 0.03 0.03 0.03 0.02 0.03
0.00 0.00 0.01 0.01 0.00 0.00 0.00 0.00 0.00 0.00 0.00 0.00 0.01 0.01 0.00 0.00 0.00 0.00 0.01 0.01 0.01 0.02 0.03 0.02 0.01 0.00 0.00 0.01 0.01 0.01 0.01 0.01 0.01 0.01 0.01 0.01 0.02 0.02 0.03 0.03 0.02 0.02 0.03 0.02 0.03 0.03 0.04 0.03 0.04
0.00 0.00 0.00 0.00 0.00 0.00 0.00 0.00 0.00 0.00 0.00 0.00 0.01 0.01 0.00 0.00 0.00 0.01 0.01 0.01 0.01 0.04 0.05 0.02 0.02 0.01 0.00 0.01 0.01 0.01 0.02 0.01 0.01 0.02 0.02 0.01 0.01 0.01 0.02 0.02 0.03 0.03 0.03 0.03 0.03 0.04 0.06 0.06 0.06
0.00 0.01 0.00 0.00 0.00 0.00 0.01 0.01 0.00 0.00 0.00 0.00 0.01 0.02 0.01 0.01 0.01 0.02 0.01 0.01 0.01 0.02 0.04 0.02 0.01 0.01 0.01 0.01 0.01 0.01 0.01 0.01 0.01 0.02 0.03 0.02 0.01 0.00 0.01 0.02 0.02 0.03 0.03 0.05 0.06 0.07 0.09 0.09 0.07
0.01 0.02 0.01 0.00 0.00 0.00 0.00 0.00 0.00 0.00 0.00 0.00 0.00 0.01 0.02 0.03 0.03 0.02 0.01 0.00 0.01 0.01 0.02 0.02 0.01 0.01 0.01 0.01 0.02 0.01 0.01 0.01 0.01 0.02 0.03 0.02 0.01 0.01 0.01 0.01 0.03 0.04 0.05 0.06 0.08 0.08 0.08 0.08 0.05
0.01 0.02 0.01 0.01 0.00 0.00 0.01 0.01 0.00 0.00 0.00 0.00 0.00 0.01 0.07 0.05 0.05 0.04 0.02 0.01 0.00 0.01 0.01 0.01 0.01 0.01 0.01 0.02 0.02 0.01 0.01 0.01 0.02 0.02 0.03 0.02 0.02 0.02 0.02 0.02 0.04 0.05 0.08 0.11 0.10 0.11 0.11 0.12 0.09
0.01 0.02 0.01 0.01 0.01 0.01 0.02 0.02 0.01 0.01 0.01 0.01 0.00 0.01 0.05 0.05 0.04 0.04 0.05 0.03 0.02 0.01 0.01 0.02 0.01 0.01 0.01 0.01 0.02 0.02 0.02 0.01 0.01 0.02 0.02 0.02 0.03 0.03 0.03 0.04 0.05 0.04 0.06 0.10 0.11 0.12 0.12 0.11 0.08
0.01 0.02 0.02 0.02 0.01 0.02 0.03 0.02 0.02 0.02 0.01 0.01 0.01 0.00 0.01 0.01 0.02 0.03 0.04 0.04 0.03 0.02 0.01 0.01 0.01 0.02 0.01 0.01 0.01 0.01 0.01 0.01 0.01 0.02 0.03 0.04 0.04 0.05 0.05 0.06 0.05 0.04 0.04 0.07 0.08 0.08 0.09 0.07 0.07
0.01 0.02 0.03 0.03 0.01 0.02 0.03 0.03 0.03 0.03 0.04 0.02 0.01 0.01 0.01 0.01 0.02 0.03 0.04 0.03 0.02 0.02 0.02 0.02 0.02 0.02 0.02 0.02 0.02 0.02 0.01 0.01 0.01 0.03 0.04 0.04 0.04 0.04 0.05 0.05 0.05 0.05 0.06 0.07 0.07 0.06 0.06 0.06 0.06
0.01 0.01 0.02 0.03 0.01 0.01 0.03 0.05 0.03 0.03 0.09 0.06 0.02 0.02 0.01 0.01 0.02 0.02 0.02 0.01 0.02 0.03 0.03 0.02 0.02 0.01 0.01 0.01 0.02 0.02 0.02 0.02 0.01 0.02 0.02 0.03 0.03 0.03 0.04 0.03 0.03 0.03 0.04 0.04 0.03 0.03 0.04 0.05 0.04
0.00 0.00 0.01 0.04 0.03 0.01 0.01 0.02 0.02 0.03 0.07 0.08 0.03 0.02 0.02 0.02 0.02 0.03 0.03 0.03 0.04 0.04 0.03 0.02 0.02 0.01 0.02 0.02 0.02 0.02 0.01 0.01 0.01 0.02 0.02 0.02 0.02 0.03 0.03 0.02 0.04 0.05 0.04 0.04 0.04 0.04 0.06 0.06 0.06
0.00 0.00 0.00 0.01 0.04 0.03 0.02 0.03 0.04 0.03 0.05 0.08 0.04 0.03 0.03 0.04 0.04 0.03 0.04 0.03 0.03 0.04 0.04 0.03 0.02 0.02 0.04 0.03 0.03 0.03 0.02 0.01 0.01 0.01 0.01 0.01 0.02 0.02 0.02 0.05 0.05 0.04 0.04 0.04 0.03 0.03 0.05 0.05 0.05
0.00 0.00 0.01 0.01 0.01 0.03 0.04 0.04 0.05 0.04 0.06 0.08 0.05 0.05 0.05 0.05 0.07 0.08 0.06 0.05 0.05 0.08 0.09 0.06 0.05 0.05 0.05 0.04 0.04 0.03 0.02 0.02 0.01 0.01 0.01 0.02 0.02 0.02 0.03 0.04 0.03 0.03 0.03 0.03 0.03 0.02 0.03 0.02 0.01
0.00 0.01 0.01 0.02 0.02 0.03 0.04 0.05 0.05 0.04 0.06 0.07 0.07 0.08 0.08 0.09 0.10 0.08 0.06 0.08 0.08 0.14 0.11 0.08 0.09 0.07 0.07 0.05 0.04 0.04 0.02 0.01 0.01 0.01 0.02 0.02 0.03 0.03 0.03 0.02 0.02 0.02 0.02 0.03 0.03 0.02 0.02 0.02 0.02
0.01 0.01 0.01 0.02 0.04 0.04 0.03 0.04 0.06 0.05 0.05 0.06 0.06 0.06 0.08 0.10 0.08 0.04 0.05 0.05 0.04 0.06 0.08 0.09 0.11 0.11 0.11 0.09 0.08 0.06 0.04 0.02 0.02 0.02 0.03 0.03 0.03 0.03 0.02 0.02 0.01 0.02 0.02 0.04 0.03 0.03 0.03 0.02 0.02
0.00 0.01 0.01 0.01 0.03 0.04 0.05 0.06 0.08 0.09 0.08 0.06 0.06 0.06 0.07 0.06 0.03 0.02 0.02 0.02 0.03 0.05 0.07 0.05 0.09 0.13 0.15 0.14 0.12 0.08 0.04 0.03 0.03 0.02 0.03 0.03 0.03 0.03 0.03 0.03 0.03 0.03 0.04 0.04 0.03 0.02 0.02 0.03 0.03
0.00 0.01 0.01 0.01 0.02 0.04 0.05 0.07 0.08 0.15 0.11 0.09 0.07 0.05 0.05 0.04 0.03 0.02 0.02 0.02 0.02 0.02 0.03 0.03 0.05 0.08 0.11 0.11 0.09 0.06 0.04 0.04 0.04 0.03 0.03 0.04 0.03 0.03 0.03 0.06 0.06 0.05 0.04 0.04 0.04 0.04 0.04 0.04 0.04
0.00 0.01 0.01 0.02 0.01 0.02 0.03 0.05 0.05 0.07 0.07 0.06 0.04 0.04 0.06 0.06 0.05 0.04 0.03 0.06 0.06 0.04 0.06 0.05 0.06 0.06 0.07 0.10 0.09 0.06 0.04 0.04 0.04 0.03 0.02 0.03 0.03 0.04 0.06 0.08 0.10 0.10 0.08 0.07 0.06 0.05 0.05 0.06 0.05
0.00 0.01 0.01 0.01 0.02 0.02 0.03 0.04 0.03 0.05 0.05 0.04 0.04 0.05 0.08 0.12 0.09 0.05 0.02 0.03 0.06 0.08 0.10 0.08 0.07 0.06 0.07 0.07 0.07 0.06 0.04 0.04 0.03 0.02 0.02 0.02 0.03 0.04 0.06 0.07 0.08 0.09 0.08 0.08 0.08 0.07 0.07 0.08 0.06
MSLP
1008.71 1009.80 1011.01 1012.12 1012.92 1013.27 1013.16 1012.64 1011.90 1011.13 1010.55 1010.29 1010.40 1010.82 1011.43 1012.06 1012.55 1012.80 1012.78 1012.53 1012.18 1011.85 1011.65 1011.66 1011.89 1012.26 1012.69 1013.09 1013.38 1013.52 1013.55 1013.53 1013.52 1013.59 1013.78 1014.08 1014.44 1014.81 1015.12 1015.34 1015.44 1015.46 1015.45 1015.44 1015.48 1015.59 1015.77 1015.98 1016.19
1009.16 1010.41 1011.69 1012.76 1013.42 1013.57 1013.21 1012.45 1011.48 1010.54 1009.85 1009.53 1009.61 1010.04 1010.67 1011.33 1011.85 1012.14 1012.18 1012.03 1011.78 1011.57 1011.50 1011.62 1011.94 1012.37 1012.84 1013.24 1013.53 1013.67 1013.72 1013.71 1013.74 1013.86 1014.10 1014.43 1014.81 1015.18 1015.47 1015.66 1015.73 1015.73 1015.69 1015.67 1015.70 1015.81 1015.98 1016.18 1016.37
1009.76 1011.10 1012.38 1013.34 1013.82 1013.73 1013.12 1012.14 1011.00 1009.95 1009.20 1008.86 1008.96 1009.41 1010.06 1010.73 1011.28 1011.60 1011.68 1011.60 1011.44 1011.34 1011.38 1011.60 1011.99 1012.48 1012.97 1013.39 1013.68 1013.83 1013.89 1013.92 1013.98 1014.13 1014.39 1014.72 1015.09 1015.44 1015.70 1015.86 1015.91 1015.89 1015.86 1015.85 1015.89 1016.00 1016.17 1016.35 1016.53
1010.49 1011.84 1013.03 1013.82 1014.07 1013.74 1012.91 1011.75 1010.50 1009.41 1008.66 1008.36 1008.50 1008.99 1009.66 1010.34 1010.89 1011.23 1011.34 1011.31 1011.23 1011.21 1011.33 1011.63 1012.08 1012.60 1013.11 1013.54 1013.83 1014.00 1014.07 1014.12 1014.21 1014.37 1014.63 1014.95 1015.29 1015.59 1015.82 1015.95 1016.00 1015.99 1015.98 1016.00 1016.08 1016.21 1016.38 1016.55 1016.70
1011.26 1012.54 1013.57 1014.14 1014.15 1013.59 1012.58 1011.31 1010.02 1008.95 1008.26 1008.04 1008.25 1008.78 1009.48 1010.16 1010.71 1011.04 1011.18 1011.18 1011.16 1011.20 1011.39 1011.74 1012.22 1012.76 1013.27 1013.68 1013.97 1014.14 1014.23 1014.30 1014.40 1014.58 1014.83 1015.12 1015.42 1015.68 1015.87 1015.98 1016.03 1016.05 1016.09 1016.15 1016.27 1016.43 1016.61 1016.78 1016.90
1011.99 1013.12 1013.93 1014.25 1014.01 1013.26 1012.12 1010.81 1009.55 1008.56 1007.99 1007.88 1008.18 1008.76 1009.47 1010.16 1010.69 1011.01 1011.16 1011.19 1011.22 1011.32 1011.55 1011.93 1012.41 1012.93 1013.41 1013.80 1014.08 1014.24 1014.34 1014.43 1014.55 1014.74 1014.98 1015.25 1015.51 1015.74 1015.90 1016.00 1016.06 1016.11 1016.20 1016.32 1016.49 1016.68 1016.87 1017.02 1017.12
1012.56 1013.48 1014.03 1014.09 1013.63 1012.72 1011.52 1010.23 1009.07 1008.22 1007.80 1007.82 1008.21 1008.84 1009.56 1010.23 1010.74 1011.07 1011.22 1011.30 1011.37 1011.51 1011.78 1012.16 1012.62 1013.10 1013.54 1013.88 1014.12 1014.28 1014.39 1014.50 1014.64 1014.84 1015.09 1015.35 1015.59 1015.79 1015.93 1016.02 1016.10 1016.18 1016.31 1016.48 1016.69 1016.91 1017.11 1017.25 1017.34
1012.90 1013.57 1013.84 1013.65 1013.00 1011.99 1010.79 1009.59 1008.57 1007.90 1007.64 1007.79 1008.27 1008.93 1009.65 1010.30 1010.79 1011.11 1011.29 1011.41 1011.53 1011.72 1012.00 1012.38 1012.81 1013.24 1013.61 1013.89 1014.09 1014.23 1014.35 1014.49 1014.67 1014.91 1015.17 1015.43 1015.67 1015.85 1015.98 1016.07 1016.15 1016.26 1016.42 1016.62 1016.86 1017.10 1017.30 1017.43 1017.50
1012.98 1013.38 1013.38 1012.96 1012.17 1011.12 1009.97 1008.89 1008.05 1007.57 1007.48 1007.74 1008.27 1008.95 1009.65 1010.26 1010.74 1011.06 1011.28 1011.44 1011.62 1011.86 1012.18 1012.55 1012.94 1013.31 1013.61 1013.83 1013.99 1014.12 1014.25 1014.42 1014.65 1014.93 1015.22 1015.51 1015.75 1015.93 1016.06 1016.14 1016.22 1016.34 1016.50 1016.71 1016.96 1017.20 1017.40 1017.53 1017.59
1012.84 1012.97 1012.73 1012.12 1011.23 1010.18 1009.13 1008.21 1007.55 1007.25 1007.29 1007.64 1008.20 1008.86 1009.52 1010.09 1010.54 1010.87 1011.12 1011.35 1011.60 1011.90 1012.24 1012.62 1012.97 1013.28 1013.53 1013.70 1013.82 1013.94 1014.09 1014.30 1014.58 1014.90 1015.25 1015.57 1015.83 1016.02 1016.14 1016.22 1016.29 1016.39 1016.55 1016.75 1016.98 1017.22 1017.41 1017.53 1017.59
1012.56 1012.45 1012.00 1011.26 1010.32 1009.31 1008.37 1007.61 1007.12 1006.97 1007.11 1007.51 1008.05 1008.66 1009.25 1009.76 1010.18 1010.52 1010.81 1011.10 1011.42 1011.78 1012.16 1012.54 1012.88 1013.16 1013.35 1013.49 1013.59 1013.71 1013.88 1014.13 1014.46 1014.83 1015.22 1015.57 1015.86 1016.06 1016.19 1016.26 1016.33 1016.42 1016.55 1016.73 1016.95 1017.16 1017.34 1017.47 1017.53
1012.24 1011.95 1011.34 1010.51 1009.57 1008.62 1007.80 1007.18 1006.84 1006.78 1006.98 1007.37 1007.86 1008.39 1008.89 1009.33 1009.71 1010.04 1010.37 1010.71 1011.09 1011.51 1011.93 1012.32 1012.66 1012.92 1013.10 1013.22 1013.32 1013.45 1013.65 1013.93 1014.29 1014.71 1015.13 1015.51 1015.82 1016.04 1016.18 1016.26 1016.32 1016.40 1016.52 1016.68 1016.88 1017.07 1017.25 1017.37 1017.44
1012.02 1011.58 1010.88 1010.01 1009.09 1008.22 1007.51 1007.00 1006.75 1006.75 1006.94 1007.27 1007.68 1008.09 1008.49 1008.85 1009.17 1009.49 1009.84 1010.22 1010.64 1011.10 1011.55 1011.97 1012.31 1012.58 1012.76 1012.90 1013.02 1013.17 1013.40 1013.70 1014.08 1014.51 1014.94 1015.34 1015.66 1015.90 1016.06 1016.17 1016.25 1016.34 1016.46 1016.62 1016.81 1016.99 1017.16 1017.28 1017.36
1011.97 1011.44 1010.70 1009.83 1008.95 1008.17 1007.54 1007.11 1006.90 1006.88 1007.02 1007.25 1007.54 1007.83 1008.11 1008.38 1008.65 1008.95 1009.29 1009.68 1010.13 1010.60 1011.07 1011.50 1011.87 1012.15 1012.37 1012.54 1012.71 1012.90 1013.14 1013.45 1013.83 1014.24 1014.66 1015.05 1015.37 1015.63 1015.82 1015.97 1016.09 1016.23 1016.38 1016.56 1016.76 1016.96 1017.13 1017.25 1017.34
1012.11 1011.55 1010.80 1009.97 1009.16 1008.44 1007.87 1007.47 1007.24 1007.16 1007.20 1007.31 1007.46 1007.62 1007.80 1007.99 1008.21 1008.47 1008.79 1009.18 1009.61 1010.07 1010.54 1010.97 1011.36 1011.68 1011.95 1012.18 1012.39 1012.62 1012.89 1013.19 1013.54 1013.91 1014.28 1014.63 1014.94 1015.21 1015.44 1015.65 1015.85 1016.06 1016.28 1016.51 1016.75 1016.97 1017.15 1017.29 1017.37
1012.39 1011.83 1011.13 1010.37 1009.63 1008.97 1008.42 1008.01 1007.72 1007.54 1007.44 1007.41 1007.42 1007.47 1007.56 1007.69 1007.87 1008.10 1008.40 1008.75 1009.15 1009.57 1010.01 1010.44 1010.83 1011.20 1011.52 1011.82 1012.10 1012.37 1012.65 1012.94 1013.23 1013.53 1013.82 1014.11 1014.39 1014.66 1014.93 1015.21 1015.51 1015.82 1016.13 1016.45 1016.75 1017.02 1017.23 1017.38 1017.47
1012.71 1012.20 1011.58 1010.91 1010.26 1009.65 1009.11 1008.64 1008.25 1007.93 1007.68 1007.49 1007.38 1007.34 1007.36 1007.46 1007.63 1007.85 1008.13 1008.44 1008.79 1009.16 1009.54 1009.94 1010.34 1010.74 1011.12 1011.49 1011.83 1012.15 1012.44 1012.69 1012.92 1013.12 1013.32 1013.53 1013.75 1014.02 1014.32 1014.68 1015.08 1015.50 1015.93 1016.35 1016.74 1017.07 1017.32 1017.50 1017.59
1012.96 1012.54 1012.04 1011.49 1010.93 1010.37 1009.82 1009.28 1008.75 1008.27 1007.85 1007.51 1007.28 1007.16 1007.16 1007.27 1007.45 1007.69 1007.97 1008.25 1008.55 1008.85 1009.18 1009.53 1009.92 1010.33 1010.77 1011.20 1011.61 1011.96 1012.25 1012.47 1012.62 1012.72 1012.81 1012.92 1013.08 1013.32 1013.65 1014.08 1014.57 1015.11 1015.66 1016.19 1016.67 1017.06 1017.37 1017.58 1017.70
1013.05 1012.75 1012.41 1012.01 1011.57 1011.06 1010.48 1009.85 1009.17 1008.50 1007.90 1007.40 1007.07 1006.90 1006.91 1007.05 1007.30 1007.59 1007.89 1008.17 1008.42 1008.67 1008.93 1009.23 1009.59 1010.01 1010.48 1010.96 1011.42 1011.81 1012.10 1012.28 1012.35 1012.35 1012.33 1012.34 1012.43 1012.63 1012.98 1013.45 1014.03 1014.67 1015.32 1015.95 1016.51 1016.97 1017.33 1017.59 1017.74
1012.92 1012.80 1012.64 1012.43 1012.12 1011.67 1011.07 1010.32 1009.48 1008.61 1007.80 1007.15 1006.71 1006.51 1006.54 1006.76 1007.10 1007.48 1007.84 1008.15 1008.39 1008.60 1008.80 1009.05 1009.38 1009.79 1010.27 1010.79 1011.28 1011.69 1011.98 1012.12 1012.12 1012.03 1011.91 1011.83 1011.85 1012.02 1012.35 1012.86 1013.49 1014.21 1014.94 1015.63 1016.25 1016.78 1017.18 1017.48 1017.69
1012.58 1012.67 1012.75 1012.75 1012.59 1012.21 1011.58 1010.71 1009.68 1008.59 1007.58 1006.75 1006.20 1005.97 1006.03 1006.34 1006.79 1007.30 1007.76 1008.14 1008.41 1008.61 1008.78 1008.99 1009.27 1009.66 1010.14 1010.67 1011.18 1011.60 1011.88 1011.99 1011.95 1011.79 1011.59 1011.44 1011.39 1011.52 1011.85 1012.36 1013.02 1013.77 1014.54 1015.27 1015.93 1016.49 1016.93 1017.27 1017.53
1012.10 1012.43 1012.76 1012.99 1012.99 1012.69 1012.03 1011.04 1009.82 1008.50 1007.26 1006.24 1005.57 1005.28 1005.38 1005.77 1006.36 1007.01 1007.61 1008.09 1008.44 1008.66 1008.84 1009.02 1009.28 1009.64 1010.10 1010.61 1011.11 1011.53 1011.80 1011.90 1011.82 1011.63 1011.38 1011.18 1011.10 1011.20 1011.51 1012.01 1012.67 1013.42 1014.19 1014.93 1015.59 1016.15 1016.60 1016.97 1017.28
1011.55 1012.13 1012.73 1013.19 1013.36 1013.12 1012.43 1011.32 1009.91 1008.36 1006.88 1005.67 1004.85 1004.50 1004.60 1005.08 1005.79 1006.60 1007.35 1007.98 1008.43 1008.73 1008.93 1009.12 1009.36 1009.70 1010.12 1010.61 1011.10 1011.50 1011.76 1011.84 1011.76 1011.55 1011.29 1011.07 1010.98 1011.07 1011.36 1011.85 1012.49 1013.22 1013.96 1014.66 1015.29 1015.82 1016.26 1016.64 1016.96
1011.01 1011.83 1012.68 1013.35 1013.66 1013.49 1012.77 1011.55 1009.95 1008.18 1006.48 1005.07 1004.10 1003.67 1003.76 1004.29 1005.12 1006.07 1006.99 1007.77 1008.36 1008.77 1009.04 1009.26 1009.51 1009.83 1010.23 1010.68 1011.13 1011.51 1011.76 1011.84 1011.76 1011.56 1011.32 1011.12 1011.04 1011.13 1011.42 1011.89 1012.50 1013.19 1013.88 1014.52 1015.09 1015.57 1015.97 1016.31 1016.64
1010.51 1011.54 1012.59 1013.43 1013.86 1013.73 1012.99 1011.67 1009.92 1007.97 1006.07 1004.48 1003.38 1002.86 1002.92 1003.48 1004.40 1005.48 1006.55 1007.50 1008.24 1008.77 1009.15 1009.43 1009.71 1010.02 1010.40 1010.83 1011.24 1011.60 1011.83 1011.91 1011.85 1011.68 1011.48 1011.32 1011.27 1011.39 1011.68 1012.14 1012.72 1013.35 1013.97 1014.54 1015.03 1015.43 1015.77 1016.06 1016.35
1010.04 1011.22 1012.40 1013.36 1013.86 1013.77 1013.01 1011.62 1009.78 1007.70 1005.67 1003.95 1002.73 1002.14 1002.16 1002.74 1003.71 1004.89 1006.09 1007.18 1008.07 1008.74 1009.24 1009.61 1009.94 1010.28 1010.65 1011.05 1011.44 1011.77 1011.99 1012.08 1012.04 1011.91 1011.76 1011.66 1011.66 1011.80 1012.11 1012.56 1013.10 1013.68 1014.24 1014.73 1015.13 1015.44 1015.70 1015.92 1016.15
1009.56 1010.80 1012.04 1013.05 1013.59 1013.51 1012.74 1011.35 1009.47 1007.35 1005.27 1003.50 1002.23 1001.58 1001.58 1002.15 1003.15 1004.39 1005.68 1006.88 1007.90 1008.71 1009.33 1009.80 1010.20 1010.58 1010.97 1011.36 1011.73 1012.04 1012.26 1012.35 1012.34 1012.26 1012.16 1012.11 1012.16 1012.34 1012.67 1013.11 1013.62 1014.15 1014.64 1015.05 1015.37 1015.59 1015.76 1015.90 1016.05
1009.03 1010.24 1011.46 1012.43 1012.96 1012.89 1012.16 1010.81 1008.99 1006.93 1004.90 1003.16 1001.91 1001.27 1001.26 1001.82 1002.81 1004.06 1005.39 1006.66 1007.78 1008.69 1009.42 1009.99 1010.48 1010.92 1011.34 1011.74 1012.11 1012.41 1012.63 1012.74 1012.75 1012.71 1012.67 1012.67 1012.76 1012.97 1013.30 1013.74 1014.22 1014.70 1015.12 1015.47 1015.71 1015.86 1015.95 1016.01 1016.08
1008.42 1009.52 1010.62 1011.52 1012.00 1011.93 1011.26 1010.02 1008.34 1006.45 1004.59 1002.99 1001.84 1001.26 1001.27 1001.81 1002.77 1004.00 1005.31 1006.59 1007.74 1008.72 1009.53 1010.19 1010.75 1011.26 1011.73 1012.16 1012.55 1012.86 1013.09 1013.22 1013.27 1013.27 1013.26 1013.30 1013.42 1013.65 1013.98 1014.39 1014.84 1015.27 1015.64 1015.93 1016.11 1016.21 1016.23 1016.23 1016.23
1007.74 1008.67 1009.61 1010.37 1010.79 1010.72 1010.14 1009.06 1007.62 1005.98 1004.38 1003.01 1002.04 1001.58 1001.63 1002.16 1003.08 1004.23 1005.48 1006.71 1007.84 1008.82 1009.67 1010.39 1011.01 1011.58 1012.10 1012.59 1013.01 1013.35 1013.60 1013.76 1013.84 1013.88 1013.91 1013.97 1014.11 1014.34 1014.66 1015.04 1015.44 1015.82 1016.15 1016.39 1016.53 1016.59 1016.58 1016.54 1016.49
Thickness
5823 5823 5820 5810 5789 5768 5765 5783 5798 5804 5809 5819 5823 5816 5804 5796 5785 5775 5798 5805 5800 5796 5794 5792 5791 5789 5788 5787 5785 5784 5783 5781 5780 5779 5778 5777 5776 5775 5774 5773 5772 5771 5770 5770 5769 5768 5768 5767 5767
5824 5822 5813 5797 5770 5751 5764 5789 5797 5806 5815 5823 5821 5816 5806 5799 5804 5800 5801 5802 5801 5797 5795 5793 5791 5789 5788 5786 5785 5783 5782 5780 5779 5777 5776 5775 5774 5773 5772 5771 5770 5769 5768 5768 5767 5767 5766 5765 5765
5825 5822 5801 5782 5766 5758 5772 5795 5804 5815 5825 5823 5814 5813 5805 5800 5804 5803 5805 5804 5800 5797 5795 5792 5790 5789 5787 5785 5784 5782 5780 5779 5777 5776 5775 5774 5773 5772 5771 5770 5769 5768 5767 5766 5765 5764 5763 5763 5763
5820 5807 5794 5775 5769 5781 5791 5803 5812 5813 5817 5822 5814 5803 5806 5814 5812 5810 5808 5804 5800 5796 5794 5792 5790 5788 5786 5785 5783 5781 5779 5777 5776 5775 5774 5773 5772 5770 5769 5768 5767 5766 5765 5764 5763 5762 5761 5761 5761
5813 5792 5774 5764 5775 5792 5805 5813 5815 5810 5810 5814 5812 5796 5796 5812 5816 5812 5808 5804 5799 5796 5793 5791 5790 5788 5785 5784 5782 5780 5778 5776 5775 5773 5772 5771 5770 5769 5768 5767 5765 5764 5763 5762 5761 5760 5760 5759 5758
5795 5781 5760 5756 5774 5794 5807 5817 5814 5809 5808 5810 5807 5796 5794 5809 5809 5807 5807 5803 5800 5796 5793 5791 5789 5787 5785 5783 5781 5779 5777 5775 5773 5772 5771 5770 5769 5768 5767 5765 5764 5763 5762 5761 5760 5759 5758 5757 5756
5787 5773 5761 5767 5774 5786 5806 5820 5813 5807 5805 5810 5812 5794 5793 5803 5808 5808 5806 5802 5798 5795 5792 5790 5788 5786 5784 5782 5780 5777 5776 5774 5772 5771 5769 5768 5768 5767 5765 5764 5763 5762 5761 5760 5759 5758 5757 5756 5755
5799 5779 5770 5770 5774 5783 5809 5818 5819 5814 5810 5820 5818 5796 5791 5804 5811 5808 5803 5799 5796 5793 5791 5788 5786 5785 5782 5780 5779 5777 5775 5773 5771 5770 5768 5767 5766 5765 5764 5763 5762 5761 5760 5758 5758 5757 5756 5754 5753
5805 5772 5762 5773 5779 5789 5810 5811 5817 5825 5818 5818 5820 5814 5814 5816 5812 5803 5797 5792 5790 5789 5788 5787 5785 5783 5781 5779 5778 5776 5774 5772 5770 5768 5767 5765 5764 5763 5762 5761 5760 5759 5758 5757 5756 5756 5754 5753 5752
5790 5764 5775 5793 5799 5801 5808 5809 5812 5812 5805 5806 5810 5815 5817 5813 5806 5799 5793 5789 5787 5785 5786 5786 5785 5783 5781 5779 5777 5775 5773 5771 5769 5767 5765 5764 5762 5761 5760 5759 5759 5758 5757 5756 5755 5754 5753 5752 5751
5793 5782 5792 5803 5810 5812 5808 5811 5816 5806 5796 5804 5805 5807 5810 5807 5802 5798 5795 5793 5791 5790 5788 5786 5785 5783 5781 5779 5776 5773 5771 5769 5767 5766 5764 5763 5761 5759 5758 5757 5756 5756 5755 5754 5753 5752 5751 5750 5749
5792 5796 5801 5806 5813 5811 5810 5812 5810 5808 5809 5820 5820 5817 5812 5805 5801 5799 5797 5795 5792 5789 5788 5786 5785 5783 5780 5778 5776 5773 5771 5768 5767 5765 5763 5761 5759 5758 5757 5756 5755 5754 5754 5752 5751 5750 5749 5748 5747
5790 5795 5806 5810 5812 5813 5814 5810 5809 5810 5820 5823 5821 5816 5811 5807 5804 5802 5801 5798 5794 5790 5788 5786 5785 5782 5780 5778 5775 5773 5770 5768 5766 5765 5763 5761 5759 5757 5756 5754 5753 5753 5752 5751 5749 5748 5747 5746 5745
5792 5797 5802 5807 5810 5814 5808 5808 5807 5808 5819 5817 5813 5810 5810 5807 5805 5801 5798 5794 5793 5792 5790 5789 5786 5783 5780 5777 5774 5772 5770 5768 5766 5764 5762 5760 5758 5756 5754 5753 5752 5751 5750 5749 5748 5746 5745 5744 5744
5795 5788 5791 5800 5807 5808 5805 5793 5801 5813 5815 5809 5807 5807 5806 5805 5804 5800 5798 5796 5794 5792 5791 5789 5787 5784 5780 5777 5774 5772 5769 5767 5764 5763 5761 5760 5757 5755 5753 5751 5750 5749 5748 5748 5746 5745 5744 5742 5741
5782 5773 5766 5789 5801 5805 5793 5773 5800 5813 5809 5801 5802 5803 5801 5802 5803 5803 5801 5797 5795 5792 5790 5788 5787 5783 5779 5776 5773 5771 5768 5766 5763 5761 5760 5759 5757 5754 5751 5749 5747 5746 5746 5745 5743 5741 5739 5738 5737
5757 5751 5757 5775 5797 5798 5787 5776 5799 5809 5806 5799 5800 5799 5798 5798 5799 5801 5801 5798 5795 5792 5789 5786 5785 5781 5778 5775 5772 5770 5767 5764 5762 5760 5759 5757 5755 5753 5750 5747 5745 5744 5742 5741 5740 5738 5736 5734 5733
5741 5749 5755 5763 5785 5787 5779 5780 5795 5804 5803 5799 5799 5797 5795 5796 5798 5801 5799 5798 5795 5792 5788 5785 5782 5780 5776 5773 5770 5766 5764 5762 5760 5758 5757 5755 5753 5751 5748 5745 5742 5741 5739 5737 5736 5734 5733 5732 5731
5756 5752 5750 5764 5784 5778 5773 5778 5789 5798 5797 5795 5794 5794 5792 5794 5800 5799 5798 5796 5792 5788 5785 5782 5779 5777 5773 5769 5765 5761 5758 5757 5756 5755 5754 5753 5751 5749 5745 5742 5739 5737 5734 5733 5732 5730 5728 5727 5728
5753 5745 5748 5763 5781 5776 5769 5774 5786 5792 5792 5793 5792 5791 5790 5790 5792 5793 5793 5792 5789 5785 5783 5779 5777 5775 5772 5768 5765 5762 5758 5755 5754 5752 5751 5750 5748 5746 5743 5740 5737 5734 5732 5730 5728 5726 5723 5723 5723
5750 5746 5750 5754 5769 5773 5765 5757 5768 5782 5790 5792 5793 5792 5793 5792 5789 5789 5789 5788 5785 5782 5779 5777 5774 5772 5769 5767 5763 5759 5755 5751 5749 5747 5746 5746 5745 5743 5740 5737 5734 5731 5729 5726 5725 5723 5720 5717 5718
5742 5764 5764 5760 5747 5737 5752 5727 5752 5768 5775 5779 5783 5784 5786 5789 5788 5787 5786 5783 5781 5779 5777 5773 5771 5769 5766 5763 5759 5754 5749 5745 5744 5743 5743 5742 5741 5740 5737 5734 5732 5729 5727 5724 5723 5721 5718 5715 5712
5755 5771 5765 5758 5745 5734 5740 5728 5738 5760 5760 5769 5777 5780 5782 5783 5782 5781 5781 5779 5778 5776 5773 5770 5767 5764 5761 5758 5755 5750 5746 5744 5742 5741 5739 5737 5737 5736 5734 5731 5728 5726 5724 5722 5720 5717 5715 5713 5709
5769 5760 5750 5738 5725 5712 5729 5724 5726 5745 5758 5765 5772 5776 5778 5778 5777 5775 5775 5774 5772 5771 5769 5766 5763 5759 5756 5753 5750 5747 5743 5740 5738 5736 5733 5732 5731 5730 5729 5727 5725 5723 5721 5719 5717 5714 5712 5710 5708
5757 5727 5703 5700 5692 5701 5727 5723 5726 5754 5765 5770 5769 5771 5772 5772 5770 5769 5768 5767 5766 5765 5764 5761 5757 5754 5752 5749 5746 5743 5740 5737 5735 5732 5729 5727 5725 5724 5724 5723 5721 5719 5717 5716 5714 5711 5708 5707 5705
5745 5728 5699 5687 5687 5700 5720 5717 5733 5759 5766 5769 5770 5769 5769 5767 5766 5765 5765 5763 5762 5761 5759 5756 5753 5749 5746 5743 5740 5737 5737 5734 5731 5729 5726 5724 5722 5721 5720 5719 5717 5716 5713 5712 5710 5707 5705 5703 5702
5739 5728 5728 5706 5702 5696 5704 5720 5737 5755 5757 5758 5759 5761 5761 5762 5763 5761 5761 5759 5757 5755 5754 5751 5748 5745 5742 5738 5734 5732 5731 5730 5728 5725 5724 5721 5720 5718 5716 5715 5713 5711 5709 5707 5704 5702 5701 5700 5698
5750 5738 5715 5700 5686 5682 5696 5709 5715 5732 5741 5749 5751 5752 5756 5757 5756 5756 5756 5754 5753 5751 5749 5747 5745 5741 5739 5735 5730 5728 5727 5726 5724 5722 5719 5717 5716 5714 5712 5710 5708 5706 5704 5702 5699 5698 5697 5695 5694
5736 5729 5716 5702 5697 5684 5680 5697 5736 5735 5742 5745 5749 5752 5752 5750 5750 5748 5749 5750 5749 5746 5743 5740 5738 5735 5732 5730 5725 5723 5722 5721 5720 5717 5715 5714 5712 5710 5708 5706 5703 5701 5698 5696 5694 5692 5691 5690 5688
5741 5731 5715 5698 5694 5693 5685 5698 5740 5739 5743 5746 5747 5748 5747 5747 5745 5744 5743 5742 5740 5737 5735 5733 5732 5730 5728 5725 5722 5719 5718 5716 5714 5712 5711 5709 5707 5706 5703 5700 5698 5695 5692 5690 5689 5687 5686 5684 5683